Date String (YYYY-MM-DD hh:mm:ss) UTC,Instrument flags,absolute air pressure of the measurement (hPa),sample flow rate (lpm),inlet stack bypass flow (lpm),air temperature of the measurement (°C),ambient temperature measured by the external sensor (°C),aerosol sample conditioner tube jacket temperature (°C),OPC LED temperature (°C),internal box temperature (°C),relative humidity of the measurement (%),span deviation,mass concentration of particles derived from Lorenz-Mie calculation of OPC scattering (μg/m³),mass concentration of particles derived from Lorenz-Mie calculation of OPC scattering (μg/m³),mass concentration of particles derived from Lorenz-Mie calculation of OPC scattering (μg/m³)
DateTimeUTC,F1_M11,P_M11,Q1_M11,Q2_M11,T1_M11,T2_M11,T3_M11,T4_M11,T5_M11,U1_M11,ZSPAN_M11,X2_M11,X0_M11,X1_M11
2023-06-25 05:00:00,SystemResetWarning,0836.2,5.01,000.00,029.5,026.2,000.0,038.1,030.9,25.4,0000.0,0003.43,0013.01,0001.40
2023-06-25 05:01:00,SystemResetWarning,0836.2,4.99,000.00,029.5,026.6,000.0,038.1,030.9,25.5,0000.0,0003.42,0012.80,0001.38
2023-06-25 05:02:00,SystemResetWarning,0836.2,5.00,000.00,029.5,026.9,000.0,038.1,031.0,25.6,0000.0,0003.36,0012.15,0001.35
2023-06-25 05:03:00,SystemResetWarning,0836.2,4.99,000.00,029.6,027.2,000.0,038.1,031.0,25.7,0000.0,0003.36,0011.76,0001.34
2023-06-25 05:04:00,SystemResetWarning,0836.2,5.00,000.00,029.6,027.4,000.0,038.1,031.1,25.7,0000.0,0003.34,0011.16,0001.33
2023-06-25 05:05:00,SystemResetWarning,0836.3,5.00,000.00,029.6,027.7,000.0,038.1,031.1,25.7,0000.0,0003.35,0010.71,0001.33
2023-06-25 05:06:00,SystemResetWarning,0836.3,5.00,000.00,029.6,027.8,000.0,038.1,031.2,25.6,0000.0,0003.33,0010.42,0001.33
2023-06-25 05:07:00,SystemResetWarning,0836.3,5.00,000.00,029.6,028.0,000.0,038.1,031.2,25.5,0000.0,0003.33,0010.87,0001.33
2023-06-25 05:08:00,SystemResetWarning,0836.4,5.00,000.00,029.7,028.1,000.0,038.2,031.2,25.6,0000.0,0003.31,0011.01,0001.33
2023-06-25 05:09:00,SystemResetWarning,0836.4,5.00,000.00,029.7,028.2,000.0,038.2,031.3,25.6,0000.0,0003.32,0011.80,0001.34
2023-06-25 05:10:00,SystemResetWarning,0836.4,5.00,000.00,029.7,028.3,000.0,038.2,031.3,25.5,0000.0,0003.37,0012.62,0001.35
2023-06-25 05:11:00,SystemResetWarning,0836.4,5.01,000.00,029.8,028.4,000.0,038.2,031.4,25.5,0000.0,0003.44,0012.78,0001.35
2023-06-25 05:12:00,SystemResetWarning,0836.4,5.00,000.00,029.8,028.4,000.0,038.2,031.4,25.6,0000.0,0003.47,0013.06,0001.36
2023-06-25 05:13:00,SystemResetWarning,0836.4,5.00,000.00,029.8,028.5,000.0,038.2,031.4,25.5,0000.0,0003.47,0013.47,0001.39
2023-06-25 05:14:00,SystemResetWarning,0836.4,5.00,000.00,029.9,028.6,000.0,038.3,031.5,25.5,0000.0,0003.45,0014.22,0001.40
2023-06-25 05:15:00,SystemResetWarning,0836.4,4.98,000.00,029.9,027.7,000.0,038.3,031.5,25.5,0000.0,0003.56,0015.19,0001.42
2023-06-25 05:16:00,SystemResetWarning,0836.4,5.00,000.00,029.9,025.3,000.0,038.2,031.5,25.5,0000.0,0003.60,0015.28,0001.44
2023-06-25 05:17:00,SystemResetWarning,0836.4,5.02,000.00,029.8,024.8,000.0,038.1,031.4,25.5,0000.0,0003.66,0015.18,0001.46
2023-06-25 05:18:00,SystemResetWarning,0836.4,4.99,000.00,029.7,025.1,000.0,038.1,031.1,25.8,0000.0,0003.69,0014.76,0001.49
2023-06-25 05:19:00,SystemResetWarning,0836.4,5.00,000.00,029.6,025.5,000.0,038.2,031.0,25.9,0000.0,0003.69,0014.83,0001.49
2023-06-25 05:20:00,SystemResetWarning,0836.4,5.01,000.00,029.6,026.0,000.0,038.2,031.0,26.0,0000.0,0003.67,0014.30,0001.49
2023-06-25 05:21:00,SystemResetWarning,0836.4,5.00,000.00,029.6,026.4,000.0,038.2,031.0,26.0,0000.0,0003.66,0014.23,0001.50
2023-06-25 05:22:00,SystemResetWarning,0836.4,4.98,000.00,029.6,026.8,000.0,038.2,031.0,25.9,0000.0,0003.60,0014.83,0001.51
2023-06-25 05:23:00,SystemResetWarning,0836.4,5.00,000.00,029.6,027.1,000.0,038.2,031.1,25.9,0000.0,0003.57,0015.37,0001.52
2023-06-25 05:24:00,SystemResetWarning,0836.4,5.01,000.00,029.6,027.4,000.0,038.2,031.1,25.7,0000.0,0003.64,0015.24,0001.53
2023-06-25 05:25:00,SystemResetWarning,0836.4,5.02,000.00,029.6,027.6,000.0,038.2,031.1,25.6,0000.0,0003.65,0014.43,0001.55
2023-06-25 05:26:00,SystemResetWarning,0836.4,4.99,000.00,029.6,027.8,000.0,038.2,031.2,25.5,0000.0,0003.60,0014.55,0001.55
2023-06-25 05:27:00,SystemResetWarning,0836.4,4.99,000.00,029.7,027.9,000.0,038.2,031.2,25.4,0000.0,0003.59,0014.89,0001.56
2023-06-25 05:28:00,SystemResetWarning,0836.5,5.00,000.00,029.7,028.1,000.0,038.2,031.3,25.4,0000.0,0003.57,0015.47,0001.56
2023-06-25 05:29:00,SystemResetWarning,0836.4,5.01,000.00,029.7,028.2,000.0,038.2,031.3,25.4,0000.0,0003.61,0016.04,0001.56
2023-06-25 05:30:00,SystemResetWarning,0836.4,5.01,000.00,029.7,028.2,000.0,038.2,031.3,25.3,0000.0,0003.63,0016.25,0001.57
2023-06-25 05:31:00,SystemResetWarning,0836.4,5.00,000.00,029.8,028.3,000.0,038.2,031.4,25.3,0000.0,0003.63,0016.70,0001.58
2023-06-25 05:32:00,SystemResetWarning,0836.4,5.00,000.00,029.8,028.4,000.0,038.3,031.4,25.3,0000.0,0003.65,0016.43,0001.60
2023-06-25 05:33:00,SystemResetWarning,0836.4,5.00,000.00,029.8,028.5,000.0,038.3,031.4,25.2,0000.0,0003.69,0016.02,0001.61
2023-06-25 05:34:00,SystemResetWarning,0836.4,5.00,000.00,029.9,028.5,000.0,038.3,031.4,25.1,0000.0,0003.71,0014.77,0001.62
2023-06-25 05:35:00,SystemResetWarning,0836.4,5.00,000.00,029.9,028.5,000.0,038.3,031.5,25.1,0000.0,0003.69,0014.83,0001.62
2023-06-25 05:36:00,SystemResetWarning,0836.4,4.99,000.00,029.9,028.6,000.0,038.3,031.5,25.0,0000.0,0003.67,0016.11,0001.61
2023-06-25 05:37:00,SystemResetWarning,0836.3,5.00,000.00,029.9,028.6,000.0,038.4,031.6,25.0,0000.0,0003.70,0016.31,0001.61
2023-06-25 05:38:00,SystemResetWarning,0836.3,5.00,000.00,030.0,028.7,000.0,038.4,031.6,25.0,0000.0,0003.67,0016.05,0001.60
2023-06-25 05:39:00,SystemResetWarning,0836.2,5.00,000.00,030.0,027.8,000.0,038.4,031.6,25.0,0000.0,0003.66,0016.59,0001.59
2023-06-25 05:40:00,SystemResetWarning,0836.2,5.00,000.00,030.0,025.4,000.0,038.3,031.5,25.0,0000.0,0003.61,0016.98,0001.59
2023-06-25 05:41:00,SystemResetWarning,0836.2,5.00,000.00,029.9,024.8,000.0,038.3,031.4,25.1,0000.0,0003.62,0016.75,0001.59
2023-06-25 05:42:00,SystemResetWarning,0836.2,5.01,000.00,029.8,025.1,000.0,038.2,031.0,25.2,0000.0,0003.68,0015.96,0001.60
2023-06-25 05:43:00,SystemResetWarning,0836.2,5.00,000.00,029.7,025.5,000.0,038.3,031.0,25.4,0000.0,0003.65,0016.48,0001.59
2023-06-25 05:44:00,SystemResetWarning,0836.2,5.00,000.00,029.7,026.0,000.0,038.2,031.0,25.5,0000.0,0003.64,0015.60,0001.58
2023-06-25 05:45:00,SystemResetWarning,0836.2,5.00,000.00,029.7,026.4,000.0,038.2,031.0,25.5,0000.0,0003.60,0016.54,0001.56
2023-06-25 05:46:00,SystemResetWarning,0836.3,5.00,000.00,029.7,026.8,000.0,038.2,031.0,25.6,0000.0,0003.58,0017.24,0001.54
2023-06-25 05:47:00,SystemResetWarning,0836.2,5.00,000.00,029.7,027.1,000.0,038.2,031.1,25.6,0000.0,0003.54,0016.46,0001.54
2023-06-25 05:48:00,SystemResetWarning,0836.2,5.00,000.00,029.7,027.4,000.0,038.2,031.1,25.6,0000.0,0003.48,0015.89,0001.54
2023-06-25 05:49:00,SystemResetWarning,0836.2,5.00,000.00,029.7,027.6,000.0,038.2,031.2,25.6,0000.0,0003.47,0015.71,0001.54
2023-06-25 05:50:00,SystemResetWarning,0836.2,5.00,000.00,029.7,027.8,000.0,038.2,031.2,25.7,0000.0,0003.49,0014.60,0001.56
2023-06-25 05:51:00,SystemResetWarning,0836.3,5.00,000.00,029.7,027.9,000.0,038.2,031.3,25.7,0000.0,0003.52,0014.14,0001.58
2023-06-25 05:52:00,SystemResetWarning,0836.2,5.00,000.00,029.7,028.0,000.0,038.2,031.3,25.6,0000.0,0003.54,0014.97,0001.59
2023-06-25 05:53:00,SystemResetWarning,0836.2,5.00,000.00,029.8,028.1,000.0,038.3,031.3,25.5,0000.0,0003.53,0015.40,0001.60
2023-06-25 05:54:00,SystemResetWarning,0836.2,4.99,000.00,029.8,028.2,000.0,038.3,031.4,25.5,0000.0,0003.56,0015.52,0001.61
2023-06-25 05:55:00,SystemResetWarning,0836.3,5.00,000.00,029.8,028.3,000.0,038.3,031.4,25.4,0000.0,0003.53,0015.74,0001.60
2023-06-25 05:56:00,SystemResetWarning,0836.3,5.00,000.00,029.8,028.4,000.0,038.3,031.4,25.4,0000.0,0003.56,0015.39,0001.62
2023-06-25 05:57:00,SystemResetWarning,0836.2,5.00,000.00,029.9,028.4,000.0,038.3,031.4,25.4,0000.0,0003.54,0015.01,0001.62
2023-06-25 05:58:00,SystemResetWarning,0836.3,5.00,000.00,029.9,028.5,000.0,038.3,031.5,25.4,0000.0,0003.59,0015.02,0001.64
2023-06-25 05:59:00,SystemResetWarning,0836.3,5.00,000.00,029.9,028.5,000.0,038.4,031.5,25.4,0000.0,0003.61,0015.03,0001.64
